This demonstration page uses our WeatherBlox Daily Observations layout. Learn more.

40.92945, -100.16068

Hourly Observations for November 13, 2020

Temp ( °F °C ) Dew Point ( °F °C ) Humidity (%) Winds ( mph kmh ) Pressure ( in mb ) Visibility ( mi km ) Precip ( " mm )
12:15 am 00:15 Clear 25 -4 21 -6.2 85 85 SW 3 6 30.36 1028 10 16.0934 0 0
12:35 am 00:35 Clear 27 -2.8 22 -5.5 82 82 Calm 30.34 1027 10 16.0934 0 0
12:55 am 00:55 Clear 25 -3.9 22 -5.7 87 87 Calm 30.35 1028 10 16.0934 0 0
1:15 am 01:15 Clear 22 -5.5 19 -7 89 89 Calm 30.35 1028 10 16.0934 0 0
1:35 am 01:35 Clear 22 -5.5 19 -7 89 89 ENE 3 6 30.35 1028 10 16.0934 0 0
1:55 am 01:55 Clear 22 -5.7 19 -7.2 89 89 Calm 30.36 1028 10 16.0934 0 0
2:15 am 02:15 Clear 24 -4.7 20 -6.5 87 87 SSE 3 6 30.34 1027 10 16.0934 0 0
2:35 am 02:35 Clear 24 -4.7 21 -6.3 89 89 Calm 30.34 1027 10 16.0934 0 0
2:55 am 02:55 Clear 28 -2.2 22 -5.7 77 77 SSW 5 7 30.3 1026 10 16.0934 0 0
3:15 am 03:15 Clear 28 -2.3 22 -5.8 77 77 SSW 6 9 30.3 1026 10 16.0934 0 0
3:35 am 03:35 Clear 28 -2 22 -5.5 77 77 SW 5 7 30.29 1026 10 16.0934 0 0
3:55 am 03:55 Clear 28 -2 21 -5.9 75 75 S 3 6 30.29 1026 10 16.0934 0 0
4:15 am 04:15 Clear 28 -2 22 -5.6 77 77 SSW 5 7 30.28 1025 10 16.0934 0 0
4:35 am 04:35 Clear 28 -2.1 21 -6 75 75 SW 3 6 30.28 1025 10 16.0934 0 0
4:55 am 04:55 Clear 27 -2.6 21 -6.3 76 76 Calm 30.28 1026 10 16.0934 0 0
5:15 am 05:15 Clear 28 -2.5 20 -6.5 74 74 WSW 3 6 30.28 1025 10 16.0934 0 0
5:35 am 05:35 Clear 26 -3.1 20 -6.6 77 77 WSW 5 7 30.28 1025 10 16.0934 0 0
5:55 am 05:55 Clear 26 -3.3 20 -6.6 78 78 SW 7 11 30.28 1025 10 16.0934 0 0
6:15 am 06:15 Clear 24 -4.2 19 -7 81 81 SW 6 9 30.29 1026 10 16.0934 0 0
6:35 am 06:35 Clear 23 -4.9 19 -7.2 84 84 SSW 6 9 30.29 1026 10 16.0934 0 0
6:55 am 06:55 Clear 24 -4.3 19 -7 82 82 S 8 13 30.28 1025 10 16.0934 0 0
7:15 am 07:15 Clear 23 -5.1 19 -7.5 83 83 S 6 9 30.29 1026 10 16.0934 0 0
7:35 am 07:35 Sunny 22 -5.7 18 -7.9 85 85 S 7 11 30.3 1026 10 16.0934 0 0
7:55 am 07:55 Sunny 22 -5.4 18 -7.7 84 84 S 9 15 30.29 1026 10 16.0934 0 0
8:15 am 08:15 Sunny 23 -4.9 19 -7.5 82 82 SE 6 9 30.29 1026 10 16.0934 0 0
8:35 am 08:35 Sunny 25 -4.1 19 -7 80 80 SE 3 6 30.28 1025 10 16.0934 0 0
8:55 am 08:55 Sunny 29 -1.6 22 -5.6 74 74 SSW 13 20 30.24 1024 10 16.0934 0 0
9:15 am 09:15 Sunny 32 -0.2 21 -5.9 66 66 SSW 16 26 30.22 1023 10 16.0934 0 0
9:35 am 09:35 Sunny 33 0.4 22 -5.6 64 64 SSW 15 24 30.2 1023 10 16.0934 0 0
9:55 am 09:55 Sunny 35 1.5 22 -5.5 60 60 SW 14 22 30.19 1022 10 16.0934 0 0
10:15 am 10:15 Sunny 36 2.1 22 -5.4 58 58 SW 17 28 30.18 1022 10 16.0934 0 0
10:35 am 10:35 Sunny 38 3.1 22 -5.8 52 52 SSW 26 43 30.14 1021 10 16.0934 0 0
10:55 am 10:55 Sunny 39 4 21 -6.1 48 48 SSW 23 37 30.11 1020 10 16.0934 0 0
11:15 am 11:15 Sunny 41 4.8 20 -6.7 43 43 SSW 33 54 30.07 1018 10 16.0934 0 0
11:35 am 11:35 Sunny 41 5 21 -5.9 46 46 S 36 57 30.04 1017 10 16.0934 0 0
11:55 am 11:55 Sunny 43 6 22 -5.8 43 43 SSW 33 54 30.01 1016 10 16.0934 0 0
12:15 pm 12:15 Sunny 44 6.8 21 -5.9 40 40 S 32 52 29.98 1015 10 16.0934 0 0
12:35 pm 12:35 Sunny 46 7.8 20 -6.7 35 35 SSW 22 35 29.99 1016 10 16.0934 0 0
12:55 pm 12:55 Sunny 47 8.3 21 -6.2 36 36 S 28 44 29.97 1015 10 16.0934 0 0
1:15 pm 13:15 Sunny 48 9 21 -6.3 34 34 SSW 24 39 29.95 1014 10 16.0934 0 0
1:35 pm 13:35 Sunny 50 9.9 20 -6.4 31 31 S 22 35 29.92 1013 10 16.0934 0 0
1:55 pm 13:55 Sunny 51 10.3 19 -7.2 29 29 SSW 26 43 29.91 1013 10 16.0934 0 0
2:15 pm 14:15 Sunny 51 10.5 20 -6.7 29 29 SSW 25 41 29.89 1012 10 16.0934 0 0
2:35 pm 14:35 Sunny 51 10.8 20 -6.6 29 29 SSW 24 39 29.86 1011 10 16.0934 0 0
2:55 pm 14:55 Sunny 53 11.5 20 -6.8 27 27 SSW 23 37 29.85 1011 10 16.0934 0 0
3:15 pm 15:15 Sunny 53 11.5 19 -7 27 27 SSW 24 39 29.84 1010 10 16.0934 0 0
3:35 pm 15:35 Sunny 53 11.5 19 -7.3 26 26 SSW 18 30 29.84 1010 10 16.0934 0 0
3:55 pm 15:55 Sunny 52 11.1 20 -6.7 28 28 S 22 35 29.84 1011 10 16.0934 0 0
4:15 pm 16:15 Sunny 52 11 20 -6.5 29 29 S 18 30 29.83 1010 10 16.0934 0 0
4:35 pm 16:35 Sunny 51 10.6 20 -6.6 30 30 S 13 20 29.83 1010 10 16.0934 0 0
4:55 pm 16:55 Sunny 50 9.9 21 -6.1 32 32 S 12 19 29.82 1010 10 16.0934 0 0
5:15 pm 17:15 Sunny 48 8.8 21 -6 35 35 SSE 12 19 29.82 1010 10 16.0934 0 0
5:35 pm 17:35 Clear 46 7.9 22 -5.7 38 38 SSE 12 19 29.83 1010 10 16.0934 0 0
5:55 pm 17:55 Clear 45 7.2 22 -5.7 40 40 SSE 14 22 29.83 1010 10 16.0934 0 0
6:15 pm 18:15 Clear 45 7.1 22 -5.6 40 40 S 16 26 29.82 1010 10 16.0934 0 0
6:35 pm 18:35 Clear 44 6.5 23 -5.2 43 43 S 16 26 29.82 1010 10 16.0934 0 0
6:55 pm 18:55 Clear 42 5.8 24 -4.7 47 47 SSE 13 20 29.83 1010 10 16.0934 0 0
7:15 pm 19:15 Clear 42 5.6 24 -4.6 48 48 SSE 10 17 29.83 1010 10 16.0934 0 0
7:35 pm 19:35 Clear 42 5.4 23 -4.9 48 48 SSE 13 20 29.83 1010 10 16.0934 0 0
7:55 pm 19:55 Clear 41 5.1 23 -4.9 49 49 S 13 20 29.83 1010 10 16.0934 0 0
8:15 pm 20:15 Clear 41 4.8 23 -5 49 49 S 16 26 29.83 1010 10 16.0934 0 0
8:35 pm 20:35 Clear 40 4.6 23 -4.9 51 51 SSE 15 24 29.82 1010 10 16.0934 0 0
8:55 pm 20:55 Clear 39 4.1 23 -4.9 52 52 SSE 15 24 29.82 1010 10 16.0934 0 0
9:15 pm 21:15 Clear 38 3.4 23 -4.9 55 55 S 15 24 29.81 1010 10 16.0934 0 0
9:35 pm 21:35 Clear 37 3 24 -4.7 57 57 S 17 28 29.81 1009 10 16.0934 0 0
9:55 pm 21:55 Clear 37 2.7 24 -4.7 59 59 SSE 16 26 29.8 1009 10 16.0934 0 0
10:15 pm 22:15 Clear 36 2.2 24 -4.6 61 61 SSE 8 13 29.8 1009 10 16.0934 0 0
10:35 pm 22:35 Clear 35 1.8 24 -4.7 62 62 SE 10 17 29.79 1009 10 16.0934 0 0
10:55 pm 22:55 Clear 35 1.7 24 -4.6 63 63 SSE 13 20 29.77 1008 10 16.0934 0 0
11:15 pm 23:15 Clear 35 1.5 23 -4.8 63 63 SE 10 17 29.77 1008 10 16.0934 0 0
11:35 pm 23:35 Clear 34 1.3 24 -4.5 66 66 SE 8 13 29.75 1008 10 16.0934 0 0
11:55 pm 23:55 Clear 34 1.3 25 -4.1 68 68 SSE 9 15 29.74 1007 10 16.0934 0 0

Powered by AerisWeather